TAPIOLES Weather Reports


time (UTC)temp
C
wind
direction
speed
KPH
gust
KPH
rain 1hr
cm
rain 24hr
cm
rain mn
cm
humidity
%
barometer
mb
20260505060005 10 331 1.6 6.4 0.00 1.19 0.00 99 1015.0
20260505054505 10 334 3.2 6.4 0.00 1.19 0.00 99 1014.8
20260505053006 10 320 3.2 9.7 0.00 1.19 0.00 99 1014.8
20260505051506 10 1 3.2 6.4 0.00 1.19 0.00 99 1014.5
20260505041505 10 289 3.2 6.4 0.00 1.19 0.00 99 1014.3
20260505033006 11 275 0.0 6.4 0.00 1.19 0.00 99 1014.6
20260505031505 11 275 0.0 3.2 0.00 1.19 0.00 99 1014.4
20260505024505 12 330 1.6 3.2 0.00 1.19 0.00 99 1014.6
20260505023006 12 117 0.0 3.2 0.00 1.19 0.00 99 1014.7
20260505021505 12 189 0.0 3.2 0.00 1.19 0.00 99 1014.5
20260505020006 11 291 0.0 3.2 0.00 1.19 0.00 99 1014.4
20260505014505 11 304 0.0 3.2 0.00 1.19 0.00 99 1014.4
20260505013005 11 107 0.0 3.2 0.00 1.19 0.00 99 1014.4
20260505011505 11 103 4.8 6.4 0.00 1.19 0.00 99 1014.5
20260505010005 11 270 0.0 3.2 0.00 1.19 0.00 99 1014.5
20260505001505 12 270 0.0 3.2 0.00 1.19 0.00 99 1014.8
20260505000005 12 245 0.0 3.2 0.00 1.19 0.00 99 1014.6
20260504234505 12 296 0.0 9.7 0.00 1.19 0.00 99 1014.8
20260504233005 13 322 3.2 3.2 0.00 1.19 0.00 99 1014.8
20260504231504 13 24 0.0 3.2 0.00 1.19 0.00 99 1014.2
20260504230006 13 324 0.0 3.2 0.00 1.19 0.00 99 1014.2
20260504224504 13 141 0.0 3.2 0.03 1.19 0.00 99 1014.1
20260504223005 13 143 0.0 3.2 0.05 1.19 0.00 99 1014.1
20260504221504 13 216 0.0 3.2 0.28 1.19 0.00 99 1014.2
20260504213006 14 331 3.2 6.4 0.51 1.14 1.14 99 1014.7
20260504211505 14 308 1.6 3.2 0.30 0.94 0.94 99 1015.2
20260504204504 14 270 0.0 3.2 0.00 0.64 0.64 99 1014.6
20260504203004 14 153 1.6 3.2 0.00 0.64 0.64 99 1014.4
20260504201504 14 69 3.2 6.4 0.00 0.64 0.64 99 1014.2
20260504200005 14 65 1.6 3.2 0.00 0.64 0.64 99 1014.0
20260504193004 15 303 0.0 3.2 0.00 0.64 0.64 99 1014.0
20260504191505 15 225 0.0 3.2 0.00 0.64 0.64 99 1013.6
20260504184504 15 326 1.6 3.2 0.00 0.64 0.64 99 1013.4
20260504183005 15 0 0.0 0.0 0.00 0.64 0.64 99 1013.3
20260504181504 15 77 0.0 3.2 0.00 0.64 0.64 99 1013.4
20260504180005 15 248 0.0 3.2 0.00 0.64 0.64 99 1013.5
20260504173005 15 284 1.6 3.2 0.00 0.64 0.64 99 1013.4
20260504171505 15 112 0.0 3.2 0.00 0.64 0.64 99 1013.7
20260504081506 20 244 0.0 6.4 0.00 0.00 0.00 70 1014.4